Weather History for KLCH - October, 2011

Change the Weather History Date:

Monday, October 24, 2011

  Actual Average Record
Temperature  
Mean Temperature 71 °F 68 °F  
Max Temperature 84 °F 79 °F 91 °F (1919)
Min Temperature 57 °F 57 °F 38 °F (1911)
Degree Days  
Heating Degree Days 0 2  
Month to date heating degree days 24 18  
Since 1 July heating degree days 24 19  
Cooling Degree Days 6 5  
Month to date cooling degree days 135 166  
Year to date cooling degree days 3141 2706  
Growing Degree Days 22 (Base 50)    
Moisture  
Dew Point 64 °F    
Average Humidity 73    
Maximum Humidity 100    
Minimum Humidity 46    
Precipitation  
Precipitation 0.00 in 0.18 in 3.38 in (1996)
Month to date precipitation 0.31 3.70  
Year to date precipitation 31.28 47.18  
Snow  
Snow 0.00 in 0.00 in 0.00 in ()
Month to date snowfall 0.0 0.0  
Since 1 July snowfall 0.0 0.0  
Since 1 September snowfall 0.0 0.0  
Snow Depth 0.00 in    
Sea Level Pressure  
Sea Level Pressure 30.14 in    
Wind  
Wind Speed 4 mph (NE)    
Max Wind Speed 13 mph    
Max Gust Speed 16 mph    
Visibility 5 miles    
Events Fog    
T = Trace of Precipitation, MM = Missing Value Source: NWS Daily Summary

Daily Weather History Graph

Daily Weather History Graph

Search for Another Location

Airport or City:

Trip Planner

Search our weather history database for the weather conditions in past years. The results will help you decide how hot, cold, wet, or windy it might be!

Date:

Astronomy

Oct. 24, 2011 Rise Set
Actual Time 7:20 AM CDT 6:32 PM CDT
Civil Twilight 6:56 AM CDT 6:57 PM CDT
Nautical Twilight 6:28 AM CDT 7:25 PM CDT
Astronomical Twilight 6:00 AM CDT 7:53 PM CDT
Moon 4:48 AM CDT (10/24) 4:52 PM CDT (10/24)
Length of Visible Light 12h 00m
Length of Day
11h 12m
Waning Crescent, 7% of the Moon is Illuminated
Oct 24
Waning Crescent
Oct 26
New
Nov 2
First Quarter
Nov 10
Full
Nov 18
Last Quarter

Hourly Weather History & Observations

Time (CDT) Temp. Heat Index Dew Point Humidity Pressure Visibility Wind Dir Wind Speed Gust Speed Precip Events Conditions
12:06 AM 66.2 °F - 66.2 °F 100% 30.09 in 1.2 mi Calm Calm - N/A   Partly Cloudy
12:19 AM 68.0 °F - 66.2 °F 94% 30.09 in 2.5 mi Calm Calm - N/A   Partly Cloudy
12:30 AM 66.2 °F - 66.2 °F 100% 30.09 in 0.8 mi Calm Calm - N/A   Scattered Clouds
12:41 AM 66.2 °F - 66.2 °F 100% 30.09 in 2.0 mi Calm Calm - N/A   Mostly Cloudy
12:53 AM 68.0 °F - 66.0 °F 93% 30.12 in 3.0 mi Calm Calm - N/A   Mostly Cloudy
1:53 AM 68.0 °F - 66.0 °F 93% 30.12 in 3.0 mi Calm Calm - N/A   Scattered Clouds
2:16 AM 66.2 °F - 66.2 °F 100% 30.09 in 2.5 mi Calm Calm - N/A   Mostly Cloudy
2:27 AM 66.2 °F - 66.2 °F 100% 30.09 in 3.0 mi Calm Calm - N/A   Scattered Clouds
2:40 AM 66.2 °F - 64.4 °F 94% 30.09 in 1.8 mi Calm Calm - N/A   Scattered Clouds
2:53 AM 66.9 °F - 66.0 °F 97% 30.11 in 2.0 mi Calm Calm - N/A   Mostly Cloudy
3:30 AM 66.2 °F - 66.2 °F 100% 30.09 in 3.0 mi Calm Calm - N/A   Mostly Cloudy
3:53 AM 68.0 °F - 66.0 °F 93% 30.11 in 4.0 mi Calm Calm - N/A   Mostly Cloudy
4:03 AM 68.0 °F - 66.2 °F 94% 30.09 in 1.8 mi Calm Calm - N/A   Mostly Cloudy
4:16 AM 68.0 °F - 66.2 °F 94% 30.09 in 2.5 mi Calm Calm - N/A   Mostly Cloudy
4:23 AM 68.0 °F - 66.2 °F 94% 30.09 in 3.0 mi Calm Calm - N/A   Mostly Cloudy
4:31 AM 66.2 °F - 66.2 °F 100% 30.09 in 2.5 mi Calm Calm - N/A   Mostly Cloudy
4:46 AM 68.0 °F - 66.2 °F 94% 30.10 in 4.0 mi Calm Calm - N/A   Overcast
4:53 AM 68.0 °F - 66.9 °F 96% 30.12 in 5.0 mi Calm Calm - N/A   Overcast
5:53 AM 66.0 °F - 64.9 °F 96% 30.13 in 1.5 mi Calm Calm - N/A   Partly Cloudy
5:58 AM 66.2 °F - 64.4 °F 94% 30.10 in 4.0 mi Calm Calm - N/A   Partly Cloudy
6:53 AM 64.9 °F - 64.0 °F 97% 30.14 in 4.0 mi Calm Calm - N/A   Mostly Cloudy
7:00 AM 64.4 °F - 64.4 °F 100% 30.12 in 0.2 mi Calm Calm - N/A Fog Fog
7:11 AM 64.4 °F - 64.4 °F 100% 30.13 in 3.0 mi Calm Calm - N/A   Mostly Cloudy
7:25 AM 64.4 °F - 64.4 °F 100% 30.13 in 3.0 mi Calm Calm - N/A   Mostly Cloudy
7:32 AM 64.4 °F - 64.4 °F 100% 30.13 in 2.0 mi NE 3.5 mph - N/A   Mostly Cloudy
7:53 AM 64.9 °F - 64.9 °F 100% 30.17 in 2.0 mi Calm Calm - N/A   Mostly Cloudy
8:00 AM 64.4 °F - 64.4 °F 100% 30.15 in 0.2 mi Calm Calm - N/A Fog Fog
8:15 AM 66.2 °F - 66.2 °F 100% 30.15 in 0.5 mi Calm Calm - N/A Fog Fog
8:24 AM 66.2 °F - 66.2 °F 100% 30.16 in 1.8 mi Calm Calm - N/A   Mostly Cloudy
8:39 AM 68.0 °F - 66.2 °F 94% 30.17 in 2.0 mi ENE 3.5 mph - N/A   Mostly Cloudy
8:53 AM 68.0 °F - 66.9 °F 96% 30.20 in 3.0 mi NE 5.8 mph - N/A   Mostly Cloudy
9:15 AM 69.8 °F - 66.2 °F 88% 30.18 in 3.0 mi NE 5.8 mph - N/A   Scattered Clouds
9:53 AM 73.0 °F - 68.0 °F 84% 30.21 in 7.0 mi NNE 4.6 mph - N/A   Clear
10:53 AM 77.0 °F - 68.0 °F 74% 30.21 in 10.0 mi NNE 6.9 mph - N/A   Clear
11:53 AM 80.1 °F 82.1 °F 66.0 °F 62% 30.21 in 10.0 mi NNE 6.9 mph - N/A   Clear
12:53 PM 80.1 °F 82.1 °F 66.0 °F 62% 30.19 in 10.0 mi ENE 6.9 mph - N/A   Scattered Clouds
1:53 PM 81.0 °F 82.7 °F 64.9 °F 58% 30.17 in 10.0 mi ENE 10.4 mph - N/A   Clear
2:53 PM 81.0 °F 82.2 °F 63.0 °F 54% 30.15 in 10.0 mi East 6.9 mph - N/A   Clear
3:53 PM 84.0 °F 84.9 °F 63.0 °F 49% 30.14 in 10.0 mi North 9.2 mph - N/A   Clear
4:53 PM 82.9 °F 82.8 °F 59.0 °F 44% 30.15 in 10.0 mi North 6.9 mph - N/A   Clear
5:53 PM 81.0 °F 81.3 °F 59.0 °F 47% 30.15 in 10.0 mi ENE 4.6 mph - N/A   Clear
6:53 PM 73.9 °F - 59.0 °F 59% 30.16 in 10.0 mi NE 4.6 mph - N/A   Clear
7:53 PM 72.0 °F - 59.0 °F 64% 30.18 in 10.0 mi East 5.8 mph - N/A   Clear
8:53 PM 70.0 °F - 57.9 °F 65% 30.20 in 10.0 mi East 5.8 mph - N/A   Clear
9:53 PM 66.2 °F - 57.2 °F 73% 30.18 in 10.0 mi East 3.5 mph - N/A   Clear
10:53 PM 60.1 °F - 57.0 °F 90% 30.22 in 10.0 mi Calm Calm - N/A   Clear
11:53 PM 59.0 °F - 54.0 °F 83% 30.21 in 10.0 mi Calm Calm - N/A   Clear